THORAD AGENA D DEB, 4645

Orbit data source: Space-Track

THORAD AGENA D DEB, 4645 is space debris in SSO originally from a launch on Wed, 08 Apr 1970 UTC launched from the Air Force Western Test Range (AFWTR). Debris objects in space refer to the collection of defunct objects orbiting the Earth. Examples of debris include non-operational satellites, rocket bodies, and fragments generated from explosions, collisions, or faulty payload assembly.

Loading next visibility...
Identifier
4645, 1970-025AD
Orbit
SSO
Country
Flag of USUS
Related business
Manufacturer
Unknown
Mission
Spacecraft
Bus & Motor
Unknown
Mass
Unknown
Launch date (UTC)
1970-04-08 (56 years ago)
Launch vehicle
Unknown
Launch site
Air Force Western Test Range (AFWTR)
Object type
Payload
Rocket body
Debris
Shape & HBR
Unknown shape, 0.1 m
Radar Cross Section
Small (<0.1 m²)

Expand to show TLE details & history
Last TLE update: 13 hours ago

TLE from 13 hours ago
0 THORAD AGENA D DEB
1  4645U 70025AD  25308.66973041  .00000057  00000-0  29947-3 0  9993
2  4645  99.9227  18.5018 0328158  21.3983 130.5165 12.86563861606554
Epoch: 2025-11-04T16:04Z
TLE epoch observation values (Epoch: 2025-11-04T16:04:24.707Z)
Latitude
24.92365°
Longitude
-82.1146°
Altitude
1,486.703 km
Speed
7.044 km/s
True Right ascension
13h 32m 34s
True Declination
24° 48' 17"
Sunlit
Object was in daylight at epoch
Visualization orbit readout
Latitude
Unknown
Longitude
Unknown
Altitude
Unknown
Speed
Unknown
Apparent Right ascension
Unknown
Apparent Declination
Unknown
Sunlit
N/A
Visualization observer readout
Local Sidereal Time
01:13:56
Azimuth
Unknown
Elevation
Unknown
Doppler factor
Unknown
Orbital elements
Apogee altitude
1,564.963 km
Perigee altitude
1,060.208 km
Semi-major axis
7,690.722 km
Eccentricity
0.03282
Inclination
99.9227°
RAAN
18.5018°
Arg. of periapsis
21.3983°
True anomaly
133.29987°
Mean anomaly
130.5165°
Eccentric anomaly
131.91562°
Mean motion
3.21805 °/min
Orbital period
111.87 mins
BSTAR
0.00029947
Loading maneuver chart data...
Computing Atmospheric mass density...

Documentation

Showing up to 5 results
|